{"data":{"norad_id":64715,"epoch":"2026-05-25T05:06:23.206176Z","epoch_age_seconds":67073,"freshness":"FRESH","line1":"1 64715U 25142V   26145.21276859  .00003648  00000+0  31328-3 0  9995","line2":"2 64715  69.9998 121.4972 0004114 267.4272  92.6416 14.98338014 50926","mean_motion":14.98338014,"eccentricity":0.0004114,"inclination_deg":69.9998,"raan_deg":121.4972,"arg_perigee_deg":267.4272,"mean_anomaly_deg":92.6416,"bstar":0.00031328,"rev_number":5092,"period_min":96.106485088484,"perigee_km":569.17180926115,"apogee_km":574.89040758076,"semimajor_km":6950.168108421,"source":"CELESTRAK","updated_at":"2026-05-25T13:38:20.516395Z"}}